M I D A S
Marine Information and Data Acquisition System
Tripno 172 of the Zeeleeuw from 2001-11-05 07:02:34 to 2001-11-08 17:00:00
Back to CruiseResearch ActivitiesStationsMapUnderway DataData graphs

EquipmentUnitsComments
TimeDGPSUTC
LatitudeDGPSDM.mWGS84
LongitudeDGPSDM.mWGS84
SpeedMeteo Stationm/sRelative wind speed
DirectionMeteo StationdegRelative wind direction
TemperatureMeteo Stationdeg CelciusAir temperature
PressureMeteo StationPaAtmospheric pressure
HumidityMeteo Station%Relative humidity
Missing or incorrect values are displayed as -999
Metereological data collected by the RV Zeeleeuw from 2001-11-05 07:02:34 to 2001-11-08 17:00:00
                                                                                    Next 1000 lines
Time Latitude Longitude Speed Direction Temperature Pressure Humidity
2001-11-05 07:02:44 51°13.688 2°55.906 2.6 108 11.1 102440 64
2001-11-05 07:02:49 51°13.688 2°55.906 2.1 116 11.1 102440 64
2001-11-05 07:02:54 51°13.688 2°55.906 1.6 101 11.1 102440 64
2001-11-05 07:02:59 51°13.688 2°55.906 2.5 112 11.1 102440 64
2001-11-05 07:03:05 51°13.688 2°55.906 2.1 88 11.1 102440 64
2001-11-05 07:03:09 51°13.688 2°55.906 2.9 94 11.1 102440 64
2001-11-05 07:03:15 51°13.688 2°55.907 2.3 90 11.1 102440 64
2001-11-05 07:03:19 51°13.688 2°55.907 1.9 100 11.1 102440 64
2001-11-05 07:03:24 51°13.688 2°55.907 2.8 101 11.1 102440 64
2001-11-05 07:03:29 51°13.688 2°55.907 2.3 104 11.1 102440 64
2001-11-05 07:03:35 51°13.688 2°55.907 1.2 102 11.1 102440 64
2001-11-05 07:03:39 51°13.688 2°55.907 1.4 97 11.1 102440 64
2001-11-05 07:03:45 51°13.688 2°55.908 3.5 109 11.1 102440 64
2001-11-05 07:03:49 51°13.688 2°55.908 1.4 117 11.1 102440 64
2001-11-05 07:03:55 51°13.688 2°55.908 1.7 107 11.1 102440 64
2001-11-05 07:03:59 51°13.688 2°55.908 3 106 11 102440 64
2001-11-05 07:04:05 51°13.688 2°55.908 3.2 106 11 102440 64
2001-11-05 07:04:09 51°13.688 2°55.908 3.2 100 11 102440 64
2001-11-05 07:04:15 51°13.689 2°55.907 3.3 83 11 102440 64
2001-11-05 07:04:19 51°13.689 2°55.907 2.5 98 11 102440 64
2001-11-05 07:04:25 51°13.689 2°55.907 4 101 11 102440 64
2001-11-05 07:04:29 51°13.689 2°55.908 3 86 11 102440 64
2001-11-05 07:04:35 51°13.689 2°55.908 3.8 95 11 102440 64
2001-11-05 07:04:39 51°13.689 2°55.908 2.7 109 11 102440 64
2001-11-05 07:04:45 51°13.689 2°55.908 2 109 11 102440 64
2001-11-05 07:04:49 51°13.689 2°55.908 2.3 106 11 102440 64
2001-11-05 07:04:55 51°13.689 2°55.908 2.4 102 11 102440 64
2001-11-05 07:05:00 51°13.689 2°55.907 2.2 92 11 102440 64
2001-11-05 07:05:05 51°13.689 2°55.907 1.7 85 11 102440 64
2001-11-05 07:05:10 51°13.689 2°55.907 2.2 82 11 102440 64
2001-11-05 07:05:15 51°13.689 2°55.907 2 104 11 102440 64
2001-11-05 07:05:20 51°13.69 2°55.907 2.6 118 11.1 102440 64
2001-11-05 07:05:25 51°13.69 2°55.907 3 106 11.1 102440 64
2001-11-05 07:05:30 51°13.69 2°55.907 1.8 104 11.1 102440 64
2001-11-05 07:05:35 51°13.69 2°55.907 3.9 88 11.1 102440 64
2001-11-05 07:05:40 51°13.69 2°55.907 3.9 87 11 102440 64
2001-11-05 07:05:45 51°13.69 2°55.907 2.6 98 11 102440 64
2001-11-05 07:05:50 51°13.69 2°55.907 2.9 86 11.1 102440 64
2001-11-05 07:05:55 51°13.69 2°55.907 2.8 89 11.1 102440 64
2001-11-05 07:06:00 51°13.69 2°55.907 2.9 91 11 102440 64
2001-11-05 07:06:05 51°13.69 2°55.907 2.3 92 11 102440 64
2001-11-05 07:06:10 51°13.69 2°55.907 2.4 96 11.1 102450 64
2001-11-05 07:06:15 51°13.69 2°55.907 3.3 92 11.1 102450 64
2001-11-05 07:06:20 51°13.69 2°55.907 3.3 96 11 102440 64
2001-11-05 07:06:25 51°13.69 2°55.907 3.3 109 11 102440 64
2001-11-05 07:06:30 51°13.689 2°55.907 2 100 11.1 102440 65
2001-11-05 07:06:35 51°13.689 2°55.906 3.2 86 11.1 102440 65
2001-11-05 07:06:40 51°13.689 2°55.906 3 87 11.1 102440 65
2001-11-05 07:06:45 51°13.689 2°55.906 3 84 11.1 102440 65
2001-11-05 07:06:50 51°13.689 2°55.906 2.4 95 11.1 102440 65
2001-11-05 07:06:55 51°13.689 2°55.906 2.4 95 11.1 102440 65
2001-11-05 07:07:00 51°13.689 2°55.906 2.2 96 11.1 102450 65
2001-11-05 07:07:05 51°13.689 2°55.906 2.1 105 11.1 102450 65
2001-11-05 07:07:10 51°13.689 2°55.906 1.8 128 11.1 102440 65
2001-11-05 07:07:15 51°13.689 2°55.906 1.7 100 11.1 102440 65
2001-11-05 07:07:20 51°13.689 2°55.906 1.9 83 11.1 102440 65
2001-11-05 07:07:25 51°13.689 2°55.906 1.9 95 11.1 102440 65
2001-11-05 07:07:30 51°13.689 2°55.906 1.7 114 11.1 102450 65
2001-11-05 07:07:35 51°13.689 2°55.906 2.3 94 11.1 102450 65
2001-11-05 07:07:40 51°13.689 2°55.906 1.5 103 11.1 102440 65
2001-11-05 07:07:45 51°13.689 2°55.906 2 109 11.1 102440 65
2001-11-05 07:07:50 51°13.689 2°55.906 1 101 11.1 102440 65
2001-11-05 07:07:55 51°13.689 2°55.906 1.5 108 11.1 102440 65
2001-11-05 07:08:00 51°13.689 2°55.906 1.9 107 11.1 102440 65
2001-11-05 07:08:05 51°13.689 2°55.906 1.3 92 11.1 102440 65
2001-11-05 07:08:10 51°13.689 2°55.906 1.6 104 11.1 102440 65
2001-11-05 07:08:15 51°13.689 2°55.906 2.1 98 11.1 102440 65
2001-11-05 07:08:20 51°13.689 2°55.906 2 93 11.1 102440 65
2001-11-05 07:08:25 51°13.689 2°55.906 2.9 85 11.1 102440 65
2001-11-05 07:08:30 51°13.689 2°55.906 3.2 100 11.1 102450 65
2001-11-05 07:08:35 51°13.689 2°55.906 3 86 11.1 102450 65
2001-11-05 07:08:40 51°13.689 2°55.906 3 92 11.1 102450 65
2001-11-05 07:08:45 51°13.689 2°55.906 2.4 91 11.1 102450 65
2001-11-05 07:08:50 51°13.689 2°55.906 1.9 99 11 102440 65
2001-11-05 07:08:55 51°13.689 2°55.906 3.5 103 11 102440 65
2001-11-05 07:09:00 51°13.689 2°55.906 3.2 97 11 102450 65
2001-11-05 07:09:05 51°13.689 2°55.906 2.3 111 11 102450 65
2001-11-05 07:09:10 51°13.689 2°55.906 2.7 87 11 102440 65
2001-11-05 07:09:15 51°13.689 2°55.906 2.7 95 11 102440 65
2001-11-05 07:09:20 51°13.689 2°55.906 2.1 83 11 102450 65
2001-11-05 07:09:25 51°13.689 2°55.906 2 75 11 102450 65
2001-11-05 07:09:30 51°13.689 2°55.906 1.8 115 11 102440 65
2001-11-05 07:09:35 51°13.689 2°55.906 2.7 107 11 102440 65
2001-11-05 07:09:40 51°13.689 2°55.906 1.9 100 11.1 102450 65
2001-11-05 07:09:45 51°13.689 2°55.906 3.1 114 11.1 102450 65
2001-11-05 07:09:50 51°13.689 2°55.906 2.5 112 11 102450 65
2001-11-05 07:09:55 51°13.689 2°55.906 3.6 100 11 102450 65
2001-11-05 07:10:00 51°13.689 2°55.906 2.6 88 11.1 102450 65
2001-11-05 07:10:05 51°13.689 2°55.906 2.4 97 11.1 102450 65
2001-11-05 07:10:10 51°13.689 2°55.906 3.3 115 11 102440 65
2001-11-05 07:10:15 51°13.689 2°55.906 3.1 97 11 102440 65
2001-11-05 07:10:20 51°13.689 2°55.906 3 85 11 102450 64
2001-11-05 07:10:25 51°13.689 2°55.906 4.2 94 11 102450 64
2001-11-05 07:10:30 51°13.689 2°55.906 4.1 102 11 102450 64
2001-11-05 07:10:35 51°13.689 2°55.906 3.8 83 11 102450 64
2001-11-05 07:10:40 51°13.689 2°55.906 3.4 119 11 102450 64
2001-11-05 07:10:45 51°13.689 2°55.906 2.1 101 11 102450 64
2001-11-05 07:10:50 51°13.689 2°55.906 2.3 123 11 102450 64
2001-11-05 07:10:55 51°13.689 2°55.906 1.4 106 11 102450 64
2001-11-05 07:11:00 51°13.689 2°55.906 2.1 107 11 102450 64
2001-11-05 07:11:05 51°13.689 2°55.905 1.9 84 11 102450 64
2001-11-05 07:11:10 51°13.689 2°55.905 3 71 11 102450 64
2001-11-05 07:11:15 51°13.689 2°55.905 3.2 83 11 102450 64
2001-11-05 07:11:20 51°13.689 2°55.905 2.6 98 11 102450 64
2001-11-05 07:11:25 51°13.689 2°55.905 2.2 96 11 102450 64
2001-11-05 07:11:30 51°13.689 2°55.905 2.7 102 11 102450 64
2001-11-05 07:11:35 51°13.689 2°55.905 3.1 87 11 102450 64
2001-11-05 07:11:40 51°13.689 2°55.905 2 101 11 102450 64
2001-11-05 07:11:45 51°13.689 2°55.905 2.6 96 11 102450 64
2001-11-05 07:11:50 51°13.689 2°55.905 2.6 97 11 102450 64
2001-11-05 07:11:55 51°13.689 2°55.905 3.4 111 11 102450 64
2001-11-05 07:12:00 51°13.689 2°55.905 2.5 94 11 102450 64
2001-11-05 07:12:05 51°13.689 2°55.905 2.4 99 11 102450 64
2001-11-05 07:12:10 51°13.689 2°55.905 3.1 108 11 102450 64
2001-11-05 07:12:15 51°13.689 2°55.905 2.2 115 11 102450 64
2001-11-05 07:12:20 51°13.689 2°55.905 4 106 11 102450 64
2001-11-05 07:12:25 51°13.689 2°55.905 2.9 94 11 102450 64
2001-11-05 07:12:30 51°13.689 2°55.905 2.1 85 11 102450 63
2001-11-05 07:12:35 51°13.689 2°55.905 3.3 110 11 102450 63
2001-11-05 07:12:40 51°13.689 2°55.905 2.9 100 11 102450 64
2001-11-05 07:12:45 51°13.69 2°55.905 2 102 11 102450 64
2001-11-05 07:12:50 51°13.69 2°55.905 2.8 89 11 102450 63
2001-11-05 07:12:55 51°13.69 2°55.905 2.2 99 11 102450 63
2001-11-05 07:13:00 51°13.689 2°55.905 2.9 104 11 102450 63
2001-11-05 07:13:05 51°13.689 2°55.905 2.1 95 11 102450 63
2001-11-05 07:13:10 51°13.689 2°55.905 1.6 104 11 102450 63
2001-11-05 07:13:15 51°13.689 2°55.905 2.5 106 11 102450 63
2001-11-05 07:13:20 51°13.689 2°55.905 1.5 132 11 102450 63
2001-11-05 07:13:25 51°13.689 2°55.905 3.9 105 11 102450 63
2001-11-05 07:13:30 51°13.689 2°55.905 2.4 89 11 102450 63
2001-11-05 07:13:35 51°13.689 2°55.905 2 92 11 102450 63
2001-11-05 07:13:40 51°13.689 2°55.905 2 91 11 102450 63
2001-11-05 07:13:45 51°13.689 2°55.905 1.6 92 11 102450 63
2001-11-05 07:13:50 51°13.689 2°55.905 3.4 113 11 102450 63
2001-11-05 07:13:55 51°13.689 2°55.905 1.3 114 11 102450 63
2001-11-05 07:14:00 51°13.689 2°55.905 2.8 122 11 102450 63
2001-11-05 07:14:05 51°13.689 2°55.905 2 128 11 102450 63
2001-11-05 07:14:10 51°13.689 2°55.905 1.4 132 11 102450 63
2001-11-05 07:14:15 51°13.689 2°55.905 2.1 97 11 102450 63
2001-11-05 07:14:20 51°13.689 2°55.905 2.5 96 11 102450 63
2001-11-05 07:14:25 51°13.689 2°55.905 2 122 11 102450 63
2001-11-05 07:14:30 51°13.689 2°55.905 1.1 120 11 102450 64
2001-11-05 07:14:35 51°13.689 2°55.905 2.3 97 11 102450 64
2001-11-05 07:14:40 51°13.689 2°55.905 1.3 125 11 102450 64
2001-11-05 07:14:45 51°13.689 2°55.905 1.8 118 11 102450 64
2001-11-05 07:14:50 51°13.689 2°55.905 4 96 11 102450 64
2001-11-05 07:14:55 51°13.689 2°55.905 3.7 99 11 102450 64
2001-11-05 07:15:00 51°13.689 2°55.905 4.5 94 11 102450 64
2001-11-05 07:15:05 51°13.689 2°55.905 3.2 100 11 102450 64
2001-11-05 07:15:10 51°13.689 2°55.905 3.6 81 11 102450 64
2001-11-05 07:15:15 51°13.689 2°55.905 2.7 95 11 102450 64
2001-11-05 07:15:20 51°13.689 2°55.905 2.9 105 11 102450 64
2001-11-05 07:15:25 51°13.689 2°55.905 2.4 90 11 102450 64
2001-11-05 07:15:30 51°13.689 2°55.905 3.3 80 11 102450 64
2001-11-05 07:15:35 51°13.689 2°55.905 3.8 102 11 102450 64
2001-11-05 07:15:40 51°13.689 2°55.905 3.8 79 11 102450 64
2001-11-05 07:15:45 51°13.689 2°55.905 3.2 88 11 102450 64
2001-11-05 07:15:50 51°13.689 2°55.905 2.4 91 11 102450 64
2001-11-05 07:15:55 51°13.689 2°55.905 3 89 11 102450 64
2001-11-05 07:16:00 51°13.689 2°55.905 3 87 11.1 102450 64
2001-11-05 07:16:05 51°13.689 2°55.905 2.5 90 11.1 102450 64
2001-11-05 07:16:10 51°13.689 2°55.905 3.5 96 11.1 102450 63
2001-11-05 07:16:15 51°13.689 2°55.905 3.9 100 11.1 102450 63
2001-11-05 07:16:20 51°13.689 2°55.905 2.9 90 11.1 102450 63
2001-11-05 07:16:25 51°13.689 2°55.905 3.2 90 11.1 102450 63
2001-11-05 07:16:30 51°13.689 2°55.905 2.7 85 11.1 102450 63
2001-11-05 07:16:35 51°13.689 2°55.905 2.6 94 11.1 102450 63
2001-11-05 07:16:40 51°13.689 2°55.905 2.6 88 11.1 102450 63
2001-11-05 07:16:45 51°13.689 2°55.905 2.7 98 11.1 102450 63
2001-11-05 07:16:50 51°13.689 2°55.905 3.9 86 11.1 102450 62
2001-11-05 07:16:55 51°13.689 2°55.905 2.8 91 11.1 102450 62
2001-11-05 07:17:00 51°13.689 2°55.905 3.3 119 11 102450 62
2001-11-05 07:17:05 51°13.689 2°55.905 4.3 95 11 102450 62
2001-11-05 07:17:10 51°13.689 2°55.905 3.8 88 11.1 102450 62
2001-11-05 07:17:15 51°13.689 2°55.905 3.7 87 11.1 102450 62
2001-11-05 07:17:20 51°13.689 2°55.905 3.3 98 11.1 102450 62
2001-11-05 07:17:25 51°13.689 2°55.905 3.8 86 11.1 102450 62
2001-11-05 07:17:30 51°13.689 2°55.905 4.7 94 11.1 102450 62
2001-11-05 07:17:35 51°13.689 2°55.905 3.3 85 11.1 102450 62
2001-11-05 07:17:40 51°13.689 2°55.905 3.1 89 11.1 102450 62
2001-11-05 07:17:45 51°13.689 2°55.905 2.2 79 11.1 102450 62
2001-11-05 07:17:50 51°13.689 2°55.905 2.8 81 11.1 102450 62
2001-11-05 07:17:55 51°13.689 2°55.905 5 97 11.1 102450 62
2001-11-05 07:18:00 51°13.689 2°55.905 3 89 11.1 102450 62
2001-11-05 07:18:05 51°13.689 2°55.905 2.8 82 11.1 102450 62
2001-11-05 07:18:10 51°13.689 2°55.905 3.3 98 11.1 102450 62
2001-11-05 07:18:15 51°13.689 2°55.905 3 97 11.1 102450 62
2001-11-05 07:18:20 51°13.689 2°55.905 3.4 91 11.1 102450 62
2001-11-05 07:18:25 51°13.689 2°55.905 3.1 86 11.1 102450 62
2001-11-05 07:18:30 51°13.689 2°55.905 2.1 95 11.1 102450 62
2001-11-05 07:18:35 51°13.689 2°55.905 2.7 79 11.1 102450 62
2001-11-05 07:18:40 51°13.689 2°55.905 2.6 90 11.1 102450 61
2001-11-05 07:18:45 51°13.689 2°55.905 1.8 96 11.1 102450 61
2001-11-05 07:18:50 51°13.69 2°55.905 2.2 98 11.1 102450 62
2001-11-05 07:18:55 51°13.69 2°55.905 1.4 108 11.1 102450 62
2001-11-05 07:19:00 51°13.69 2°55.905 2.4 120 11.1 102450 61
2001-11-05 07:19:05 51°13.69 2°55.905 2.8 93 11.1 102450 61
2001-11-05 07:19:10 51°13.69 2°55.904 2.5 85 11.1 102450 62
2001-11-05 07:19:15 51°13.69 2°55.904 2.5 91 11.1 102450 62
2001-11-05 07:19:20 51°13.69 2°55.905 2.2 106 11.1 102450 62
2001-11-05 07:19:25 51°13.69 2°55.905 2.2 72 11.1 102450 62
2001-11-05 07:19:30 51°13.69 2°55.905 2.8 95 11.1 102450 62
2001-11-05 07:19:35 51°13.69 2°55.905 3.5 100 11.1 102450 62
2001-11-05 07:19:40 51°13.69 2°55.905 2.4 70 11.1 102450 62
2001-11-05 07:19:45 51°13.689 2°55.905 3.2 107 11.1 102450 62
2001-11-05 07:19:50 51°13.689 2°55.905 2.2 94 11.1 102450 62
2001-11-05 07:19:55 51°13.689 2°55.905 3 94 11.1 102450 62
2001-11-05 07:20:00 51°13.689 2°55.905 2.6 88 11.1 102450 62
2001-11-05 07:20:05 51°13.689 2°55.905 2.3 95 11.1 102450 62
2001-11-05 07:20:10 51°13.689 2°55.905 3.2 96 11.1 102450 62
2001-11-05 07:20:15 51°13.689 2°55.905 2.4 80 11.1 102450 62
2001-11-05 07:20:20 51°13.689 2°55.905 3.1 84 11.1 102450 62
2001-11-05 07:20:25 51°13.689 2°55.905 2.3 90 11.1 102450 62
2001-11-05 07:20:30 51°13.689 2°55.905 2.6 94 11.1 102450 62
2001-11-05 07:20:35 51°13.689 2°55.905 2.4 108 11.1 102450 62
2001-11-05 07:20:40 51°13.689 2°55.905 1.9 57 11.1 102450 62
2001-11-05 07:20:45 51°13.689 2°55.905 3 100 11.1 102450 62
2001-11-05 07:20:50 51°13.689 2°55.905 2.1 93 11.1 102450 62
2001-11-05 07:20:55 51°13.689 2°55.905 2.4 91 11.1 102450 62
2001-11-05 07:21:00 51°13.689 2°55.905 2.6 97 11.1 102450 62
2001-11-05 07:21:05 51°13.689 2°55.905 2.3 89 11.1 102450 62
2001-11-05 07:21:10 51°13.689 2°55.906 1.7 98 11.1 102450 62
2001-11-05 07:21:15 51°13.689 2°55.906 2.5 87 11.1 102450 62
2001-11-05 07:21:20 51°13.689 2°55.906 2.3 87 11.1 102450 62
2001-11-05 07:21:25 51°13.689 2°55.906 2.2 92 11.1 102450 62
2001-11-05 07:21:30 51°13.689 2°55.905 2.9 97 11.1 102450 62
2001-11-05 07:21:35 51°13.689 2°55.906 2.4 82 11.1 102450 62
2001-11-05 07:21:40 51°13.689 2°55.906 3.2 95 11.1 102450 62
2001-11-05 07:21:45 51°13.689 2°55.906 2.9 85 11.1 102450 62
2001-11-05 07:21:50 51°13.689 2°55.906 2.2 85 11.1 102450 62
2001-11-05 07:21:55 51°13.689 2°55.905 2.8 101 11.1 102450 62
2001-11-05 07:22:00 51°13.689 2°55.906 2.7 90 11.1 102450 62
2001-11-05 07:22:05 51°13.689 2°55.905 2.7 101 11.1 102450 62
2001-11-05 07:22:10 51°13.689 2°55.905 3.2 92 11.1 102450 62
2001-11-05 07:22:15 51°13.689 2°55.905 1.9 100 11.1 102450 62
2001-11-05 07:22:20 51°13.689 2°55.905 2.8 83 11.1 102450 62
2001-11-05 07:22:25 51°13.689 2°55.905 3.1 87 11.1 102450 62
2001-11-05 07:22:30 51°13.689 2°55.905 3.4 76 11.1 102450 61
2001-11-05 07:22:35 51°13.689 2°55.905 3 79 11.1 102450 61
2001-11-05 07:22:40 51°13.689 2°55.905 2.9 87 11.1 102450 62
2001-11-05 07:22:45 51°13.689 2°55.905 4.8 104 11.1 102450 62
2001-11-05 07:22:50 51°13.689 2°55.905 2.9 95 11.1 102450 62
2001-11-05 07:22:55 51°13.689 2°55.905 2.5 98 11.1 102450 62
2001-11-05 07:23:00 51°13.689 2°55.905 3.5 99 11.1 102450 62
2001-11-05 07:23:05 51°13.689 2°55.905 2.7 103 11.1 102450 62
2001-11-05 07:23:10 51°13.689 2°55.905 2.5 90 11.1 102450 61
2001-11-05 07:23:15 51°13.689 2°55.905 2.1 99 11.1 102450 61
2001-11-05 07:23:20 51°13.689 2°55.905 2 94 11.1 102460 61
2001-11-05 07:23:25 51°13.689 2°55.905 2.5 92 11.1 102460 61
2001-11-05 07:23:30 51°13.689 2°55.905 2.4 90 11.1 102450 61
2001-11-05 07:23:35 51°13.689 2°55.905 2.7 85 11.1 102450 61
2001-11-05 07:23:40 51°13.689 2°55.905 2.7 85 11.1 102450 61
2001-11-05 07:23:45 51°13.689 2°55.905 2.6 99 11.1 102450 61
2001-11-05 07:23:50 51°13.689 2°55.905 2.1 100 11.1 102450 61
2001-11-05 07:23:55 51°13.689 2°55.905 3.1 90 11.1 102450 61
2001-11-05 07:24:00 51°13.689 2°55.905 3.4 89 11.1 102450 61
2001-11-05 07:24:05 51°13.689 2°55.905 1.8 85 11.1 102450 61
2001-11-05 07:24:10 51°13.689 2°55.905 3.4 96 11.1 102450 61
2001-11-05 07:24:15 51°13.689 2°55.905 3.6 103 11.1 102450 61
2001-11-05 07:24:20 51°13.689 2°55.905 2.4 87 11.1 102450 61
2001-11-05 07:24:25 51°13.689 2°55.905 4.3 109 11.1 102450 61
2001-11-05 07:24:30 51°13.689 2°55.905 3.1 83 11.1 102450 62
2001-11-05 07:24:35 51°13.689 2°55.905 2.3 83 11.1 102450 62
2001-11-05 07:24:40 51°13.689 2°55.905 3.1 100 11.1 102450 62
2001-11-05 07:24:45 51°13.689 2°55.905 2.8 91 11.1 102450 62
2001-11-05 07:24:49 51°13.689 2°55.905 2.3 92 11.1 102460 62
2001-11-05 07:24:52 51°13.689 2°55.906 2.1 88 11.1 102460 62
2001-11-05 07:24:55 51°13.689 2°55.906 1.9 104 11.1 102460 62
2001-11-05 07:25:00 51°13.689 2°55.906 2.3 86 11.1 102460 62
2001-11-05 07:25:05 51°13.689 2°55.906 1.7 95 11.1 102450 62
2001-11-05 07:25:10 51°13.689 2°55.906 1.5 88 11.1 102450 62
2001-11-05 07:25:15 51°13.689 2°55.906 2 80 11.1 102460 62
2001-11-05 07:25:20 51°13.689 2°55.906 2 98 11.1 102460 62
2001-11-05 07:25:25 51°13.689 2°55.906 1.4 128 11.2 102460 62
2001-11-05 07:25:30 51°13.689 2°55.906 2.5 87 11.2 102460 62
2001-11-05 07:25:35 51°13.689 2°55.906 2.2 84 11.1 102460 62
2001-11-05 07:25:40 51°13.689 2°55.906 3.4 95 11.1 102460 62
2001-11-05 07:25:45 51°13.689 2°55.906 3 132 11.1 102450 62
2001-11-05 07:25:50 51°13.689 2°55.906 2.5 95 11.1 102450 62
2001-11-05 07:25:55 51°13.689 2°55.906 3 84 11.1 102460 62
2001-11-05 07:26:00 51°13.689 2°55.906 2.5 127 11.1 102460 62
2001-11-05 07:26:05 51°13.689 2°55.906 2.6 111 11.1 102460 62
2001-11-05 07:26:10 51°13.689 2°55.906 3.3 95 11.1 102460 62
2001-11-05 07:26:15 51°13.689 2°55.906 2.5 94 11.1 102460 62
2001-11-05 07:26:20 51°13.689 2°55.906 3 108 11.1 102460 62
2001-11-05 07:26:25 51°13.689 2°55.906 3.3 86 11.1 102460 62
2001-11-05 07:26:30 51°13.689 2°55.906 3.1 83 11.1 102460 62
2001-11-05 07:26:35 51°13.689 2°55.906 3.1 96 11.1 102460 62
2001-11-05 07:26:40 51°13.689 2°55.906 2.9 84 11.1 102460 62
2001-11-05 07:26:45 51°13.689 2°55.906 3 98 11.1 102460 62
2001-11-05 07:26:50 51°13.689 2°55.906 2.9 91 11.1 102460 62
2001-11-05 07:26:54 51°13.689 2°55.906 2.1 100 11.1 102460 62
2001-11-05 07:27:00 51°13.689 2°55.906 2.2 99 11.1 102460 62
2001-11-05 07:27:05 51°13.689 2°55.906 2.6 101 11.1 102460 62
2001-11-05 07:27:10 51°13.689 2°55.906 2.2 92 11.1 102460 62
2001-11-05 07:27:15 51°13.689 2°55.906 1.8 82 11.1 102460 62
2001-11-05 07:27:20 51°13.689 2°55.906 2.2 90 11.1 102460 62
2001-11-05 07:27:25 51°13.689 2°55.906 1.9 95 11.1 102460 62
2001-11-05 07:27:30 51°13.689 2°55.906 2.6 94 11.1 102460 62
2001-11-05 07:27:35 51°13.689 2°55.906 1.9 88 11.1 102460 62
2001-11-05 07:27:40 51°13.689 2°55.906 2.3 86 11.1 102460 62
2001-11-05 07:27:45 51°13.689 2°55.906 2 86 11.1 102460 62
2001-11-05 07:27:50 51°13.689 2°55.906 2.1 107 11.1 102460 62
2001-11-05 07:27:54 51°13.689 2°55.906 2.4 99 11.1 102460 62
2001-11-05 07:28:00 51°13.689 2°55.906 2.5 94 11.1 102460 62
2001-11-05 07:28:05 51°13.689 2°55.906 2.6 95 11.1 102460 62
2001-11-05 07:28:10 51°13.689 2°55.907 2.9 86 11.1 102460 62
2001-11-05 07:28:15 51°13.689 2°55.907 2.5 77 11.1 102460 62
2001-11-05 07:28:20 51°13.689 2°55.907 1.6 104 11.1 102460 62
2001-11-05 07:28:25 51°13.689 2°55.907 2.4 107 11.1 102460 62
2001-11-05 07:28:30 51°13.689 2°55.907 2.7 103 11.1 102460 62
2001-11-05 07:28:35 51°13.689 2°55.907 2.9 97 11.1 102460 62
2001-11-05 07:28:40 51°13.689 2°55.907 2.6 89 11.1 102460 62
2001-11-05 07:28:45 51°13.689 2°55.907 2.9 93 11.1 102460 62
2001-11-05 07:28:50 51°13.689 2°55.907 3.2 92 11.1 102460 62
2001-11-05 07:28:54 51°13.689 2°55.907 2.9 102 11.1 102460 62
2001-11-05 07:29:00 51°13.689 2°55.907 2.8 86 11.1 102460 62
2001-11-05 07:29:05 51°13.689 2°55.907 3.1 80 11.1 102460 63
2001-11-05 07:29:10 51°13.689 2°55.907 2.2 79 11.1 102460 63
2001-11-05 07:29:15 51°13.689 2°55.907 2.2 90 11.1 102460 63
2001-11-05 07:29:20 51°13.689 2°55.907 3.1 87 11.1 102460 63
2001-11-05 07:29:25 51°13.689 2°55.907 2.7 87 11.1 102460 63
2001-11-05 07:29:30 51°13.689 2°55.907 2 92 11.1 102460 63
2001-11-05 07:29:35 51°13.689 2°55.907 2 103 11.1 102460 63
2001-11-05 07:29:40 51°13.689 2°55.907 4.5 106 11.1 102460 63
2001-11-05 07:29:45 51°13.689 2°55.907 3.2 94 11.1 102460 63
2001-11-05 07:29:50 51°13.689 2°55.907 2.6 89 11.1 102460 63
2001-11-05 07:29:55 51°13.689 2°55.907 2.8 98 11.2 102460 63
2001-11-05 07:30:00 51°13.689 2°55.907 2.6 99 11.2 102460 63
2001-11-05 07:30:05 51°13.689 2°55.907 3.5 104 11.2 102460 63
2001-11-05 07:30:10 51°13.689 2°55.907 2.8 93 11.2 102460 63
2001-11-05 07:30:15 51°13.689 2°55.907 2.8 83 11.2 102460 63
2001-11-05 07:30:20 51°13.689 2°55.907 2.2 86 11.2 102460 63
2001-11-05 07:30:25 51°13.689 2°55.907 2.2 72 11.1 102460 63
2001-11-05 07:30:30 51°13.689 2°55.907 3 101 11.1 102460 63
2001-11-05 07:30:35 51°13.689 2°55.907 2.2 100 11.1 102460 63
2001-11-05 07:30:40 51°13.689 2°55.907 2.5 87 11.1 102460 63
2001-11-05 07:30:45 51°13.689 2°55.907 2.5 96 11.1 102460 63
2001-11-05 07:30:50 51°13.689 2°55.907 2.9 84 11.1 102460 63
2001-11-05 07:30:55 51°13.689 2°55.907 2.6 96 11.1 102460 63
2001-11-05 07:31:00 51°13.689 2°55.907 2.2 91 11.1 102460 63
2001-11-05 07:31:05 51°13.689 2°55.907 2.8 86 11.1 102460 63
2001-11-05 07:31:10 51°13.689 2°55.907 3.9 107 11.1 102460 63
2001-11-05 07:31:15 51°13.689 2°55.907 3.7 97 11.1 102460 63
2001-11-05 07:31:20 51°13.689 2°55.907 2.5 104 11.1 102460 63
2001-11-05 07:31:25 51°13.689 2°55.907 1.8 86 11.1 102470 63
2001-11-05 07:31:30 51°13.689 2°55.907 1.9 104 11.1 102470 63
2001-11-05 07:31:35 51°13.689 2°55.907 2.3 108 11.1 102460 63
2001-11-05 07:31:40 51°13.689 2°55.907 2.7 86 11.1 102460 63
2001-11-05 07:31:45 51°13.689 2°55.907 2.4 92 11.1 102460 63
2001-11-05 07:31:50 51°13.689 2°55.907 3.2 99 11.1 102460 63
2001-11-05 07:31:55 51°13.689 2°55.907 2.9 88 11.1 102470 63
2001-11-05 07:32:00 51°13.689 2°55.907 2.5 96 11.1 102470 63
2001-11-05 07:32:05 51°13.689 2°55.906 2.3 83 11.1 102460 63
2001-11-05 07:32:10 51°13.689 2°55.906 2.4 102 11.1 102460 63
2001-11-05 07:32:15 51°13.689 2°55.906 2.2 87 11.1 102460 62
2001-11-05 07:32:20 51°13.689 2°55.906 2.3 112 11.1 102460 62
2001-11-05 07:32:25 51°13.689 2°55.906 3 89 11.1 102470 62
2001-11-05 07:32:30 51°13.689 2°55.906 2.7 90 11.1 102470 62
2001-11-05 07:32:34 51°13.689 2°55.906 2.3 88 11.1 102470 62
2001-11-05 07:32:40 51°13.689 2°55.906 2.6 91 11.1 102470 62
2001-11-05 07:32:45 51°13.689 2°55.906 2.6 75 11.1 102470 62
2001-11-05 07:32:50 51°13.689 2°55.906 3.9 96 11.1 102470 62
2001-11-05 07:32:55 51°13.689 2°55.906 3.6 98 11.1 102460 62
2001-11-05 07:33:13 51°13.689 2°55.907 3.6 98 11.1 102460 62
2001-11-05 07:33:18 51°13.689 2°55.907 3.6 98 11.1 102460 62
2001-11-05 07:33:23 51°13.689 2°55.907 3.6 98 11.1 102460 62
2001-11-05 07:33:26 51°13.689 2°55.907 3.6 98 11.1 102460 62
2001-11-05 07:33:29 51°13.689 2°55.907 3.6 98 11.1 102460 62
2001-11-05 07:33:33 51°13.689 2°55.907 3.6 98 11.1 102460 62
2001-11-05 07:33:38 51°13.69 2°55.906 3.6 98 11.1 102460 62
2001-11-05 07:33:43 51°13.69 2°55.907 2.8 83 11.1 102460 62
2001-11-05 07:34:08 51°13.69 2°55.906 2.6 86 11.1 -999 61
2001-11-05 07:34:13 51°13.689 2°55.906 4.3 89 11.1 -999 61
2001-11-05 07:34:18 51°13.689 2°55.906 4.8 100 11.1 -999 61
2001-11-05 07:34:24 51°13.69 2°55.906 3.3 77 11.1 -999 61
2001-11-05 07:34:28 51°13.69 2°55.906 3.7 83 11.1 102470 61
2001-11-05 07:34:33 51°13.69 2°55.906 2.6 78 11.1 102470 61
2001-11-05 07:34:38 51°13.69 2°55.906 3.2 100 11.1 102470 61
2001-11-05 07:34:43 51°13.69 2°55.906 3.5 99 11.1 102470 61
2001-11-05 07:34:48 51°13.69 2°55.906 3.1 77 11.1 102470 61
2001-11-05 07:34:53 51°13.69 2°55.906 3.1 85 11.1 102470 61
2001-11-05 07:34:58 51°13.69 2°55.906 3.6 91 11.1 102470 61
2001-11-05 07:35:03 51°13.689 2°55.906 2.7 105 11.1 102470 61
2001-11-05 07:35:08 51°13.689 2°55.906 2.1 102 11.1 102470 61
2001-11-05 07:35:13 51°13.689 2°55.906 3.4 91 11.1 102470 61
2001-11-05 07:35:18 51°13.689 2°55.906 4.2 102 11.1 102460 61
2001-11-05 07:35:23 51°13.689 2°55.906 2.9 88 11.1 102460 61
2001-11-05 07:35:28 51°13.689 2°55.906 2.8 93 11.1 102470 61
2001-11-05 07:35:33 51°13.689 2°55.906 5.1 93 11.1 102470 61
2001-11-05 07:35:38 51°13.689 2°55.906 4 81 11.1 102470 61
2001-11-05 07:35:43 51°13.689 2°55.906 4 93 11.1 102470 61
2001-11-05 07:35:48 51°13.689 2°55.906 2.9 113 11.1 102470 62
2001-11-05 07:35:53 51°13.689 2°55.906 3 87 11.1 102470 62
2001-11-05 07:35:58 51°13.689 2°55.906 3.5 97 11.1 102470 62
2001-11-05 07:36:03 51°13.689 2°55.906 2.5 101 11.1 102470 62
2001-11-05 07:36:08 51°13.689 2°55.906 2.6 105 11.1 102470 62
2001-11-05 07:36:13 51°13.689 2°55.906 4.5 98 11.1 102470 62
2001-11-05 07:36:18 51°13.689 2°55.906 3 97 11.1 102470 62
2001-11-05 07:36:23 51°13.689 2°55.906 2.9 100 11.1 102470 62
2001-11-05 07:36:28 51°13.689 2°55.906 1.9 97 11.1 102470 62
2001-11-05 07:36:33 51°13.689 2°55.906 2 90 11.1 102470 62
2001-11-05 07:36:38 51°13.689 2°55.906 2.6 81 11.1 102470 62
2001-11-05 07:36:43 51°13.689 2°55.906 2.6 97 11.1 102470 62
2001-11-05 07:36:48 51°13.689 2°55.906 4.8 107 11.1 102470 62
2001-11-05 07:36:53 51°13.689 2°55.906 3.1 82 11.1 102470 62
2001-11-05 07:36:58 51°13.689 2°55.906 3.1 100 11.1 102470 62
2001-11-05 07:37:03 51°13.689 2°55.906 2.9 92 11.1 102470 62
2001-11-05 07:37:08 51°13.689 2°55.907 2.5 77 11.1 102470 62
2001-11-05 07:37:13 51°13.689 2°55.906 3 104 11.1 102470 62
2001-11-05 07:37:18 51°13.689 2°55.906 2.2 104 11.1 102480 62
2001-11-05 07:37:23 51°13.689 2°55.906 2.9 102 11.1 102480 62
2001-11-05 07:37:28 51°13.689 2°55.906 1.9 101 11.1 102470 63
2001-11-05 07:37:33 51°13.689 2°55.906 2.3 94 11.1 102470 63
2001-11-05 07:37:38 51°13.689 2°55.906 2.9 105 11.1 102480 63
2001-11-05 07:37:42 51°13.689 2°55.907 2.5 95 11.1 102480 63
2001-11-05 07:37:48 51°13.689 2°55.907 2.6 94 11.1 102470 63
2001-11-05 07:37:53 51°13.689 2°55.907 2.9 111 11.1 102470 63
2001-11-05 07:37:58 51°13.689 2°55.907 2.5 110 11.1 102470 63
2001-11-05 07:38:03 51°13.689 2°55.907 2.2 83 11.1 102470 63
2001-11-05 07:38:08 51°13.689 2°55.907 2 91 11.1 102480 63
2001-11-05 07:38:13 51°13.689 2°55.907 2.9 86 11.1 102480 63
2001-11-05 07:38:18 51°13.689 2°55.907 2.8 88 11.1 102480 63
2001-11-05 07:38:22 51°13.689 2°55.907 2.8 98 11.1 102480 63
2001-11-05 07:38:28 51°13.689 2°55.906 3.4 100 11.1 102480 63
2001-11-05 07:38:33 51°13.689 2°55.906 2.4 83 11.1 102480 63
2001-11-05 07:38:38 51°13.689 2°55.906 2.5 108 11.1 102470 63
2001-11-05 07:38:43 51°13.689 2°55.906 2.4 100 11.1 102470 63
2001-11-05 07:38:48 51°13.689 2°55.906 2.2 89 11.1 102480 63
2001-11-05 07:38:53 51°13.689 2°55.906 3.2 101 11.1 102480 63
2001-11-05 07:38:58 51°13.689 2°55.906 3.2 89 11.1 102480 63
2001-11-05 07:39:03 51°13.689 2°55.906 2.5 98 11.1 102480 63
2001-11-05 07:39:08 51°13.689 2°55.906 2 89 11.1 102480 63
2001-11-05 07:39:13 51°13.689 2°55.906 1.5 103 11.1 102480 63
2001-11-05 07:39:18 51°13.689 2°55.906 1.6 96 11.1 102480 63
2001-11-05 07:39:23 51°13.689 2°55.906 1.5 97 11.1 102480 63
2001-11-05 07:39:28 51°13.689 2°55.906 1.2 84 11.1 102480 63
2001-11-05 07:39:33 51°13.689 2°55.906 1.6 100 11.1 102480 63
2001-11-05 07:39:38 51°13.689 2°55.906 2.4 85 11.1 102480 63
2001-11-05 07:39:43 51°13.689 2°55.906 2.6 98 11.1 102480 63
2001-11-05 07:39:48 51°13.689 2°55.906 2.4 87 11.1 102480 63
2001-11-05 07:39:53 51°13.689 2°55.906 2.4 94 11.1 102480 63
2001-11-05 07:39:58 51°13.689 2°55.906 2.2 83 11.1 102480 63
2001-11-05 07:40:03 51°13.689 2°55.906 1.9 94 11.1 102480 63
2001-11-05 07:40:08 51°13.689 2°55.906 1.9 124 11.1 102480 63
2001-11-05 07:40:13 51°13.689 2°55.906 1.9 95 11.1 102480 63
2001-11-05 07:40:18 51°13.689 2°55.906 1.2 96 11.1 102480 63
2001-11-05 07:40:23 51°13.689 2°55.906 2.1 101 11.1 102480 63
2001-11-05 07:40:28 51°13.689 2°55.906 1.4 96 11.1 102480 63
2001-11-05 07:40:33 51°13.689 2°55.906 1.3 106 11.1 102480 63
2001-11-05 07:40:38 51°13.689 2°55.906 1.3 107 11.1 102480 63
2001-11-05 07:40:43 51°13.689 2°55.906 1.6 109 11.1 102480 63
2001-11-05 07:40:48 51°13.689 2°55.906 1.4 105 11.1 102490 63
2001-11-05 07:40:53 51°13.689 2°55.906 1.1 102 11.1 102490 63
2001-11-05 07:40:58 51°13.689 2°55.906 1.7 106 11.1 102490 63
2001-11-05 07:41:03 51°13.689 2°55.906 2.1 122 11.1 102490 63
2001-11-05 07:41:08 51°13.689 2°55.906 1.7 113 11.1 102490 63
2001-11-05 07:41:13 51°13.689 2°55.906 2.6 85 11.1 102490 63
2001-11-05 07:41:18 51°13.689 2°55.905 2.6 89 11.1 102490 63
2001-11-05 07:41:23 51°13.689 2°55.906 2.9 96 11.1 102490 63
2001-11-05 07:41:28 51°13.689 2°55.905 2.9 99 11.1 102490 64
2001-11-05 07:41:33 51°13.689 2°55.905 2.8 108 11.1 102490 64
2001-11-05 07:41:38 51°13.689 2°55.905 1.9 98 11.1 102490 64
2001-11-05 07:41:44 51°13.689 2°55.905 4 95 11.1 102490 64
2001-11-05 07:41:48 51°13.688 2°55.905 3.9 89 11.1 102490 64
2001-11-05 07:41:53 51°13.688 2°55.905 2.6 97 11.1 102490 64
2001-11-05 07:41:58 51°13.688 2°55.905 2.9 94 11.1 102490 64
2001-11-05 07:42:03 51°13.688 2°55.905 3.3 85 11.1 102490 64
2001-11-05 07:42:08 51°13.688 2°55.905 2.9 104 11.1 102490 63
2001-11-05 07:42:13 51°13.688 2°55.905 3.5 94 11.1 102490 63
2001-11-05 07:42:18 51°13.688 2°55.905 3.7 113 11.1 102490 63
2001-11-05 07:42:23 51°13.688 2°55.905 4 106 11.1 102490 63
2001-11-05 07:42:29 51°13.688 2°55.905 2.7 86 11.1 102490 63
2001-11-05 07:42:33 51°13.688 2°55.905 2.9 95 11.1 102490 63
2001-11-05 07:42:38 51°13.688 2°55.905 2.7 74 11.1 102490 63
2001-11-05 07:42:43 51°13.688 2°55.905 2.7 103 11.1 102490 63
2001-11-05 07:42:48 51°13.688 2°55.905 3.6 91 11.1 102490 63
2001-11-05 07:42:53 51°13.688 2°55.905 2.8 98 11.1 102490 63
2001-11-05 07:42:58 51°13.688 2°55.905 3 89 11.1 102490 63
2001-11-05 07:43:03 51°13.688 2°55.905 2.9 89 11.1 102490 63
2001-11-05 07:43:08 51°13.689 2°55.905 3.6 95 11.1 102490 63
2001-11-05 07:43:13 51°13.689 2°55.905 2.6 91 11.1 102490 63
2001-11-05 07:43:18 51°13.689 2°55.905 3.1 85 11.1 102490 63
2001-11-05 07:43:22 51°13.689 2°55.905 2.8 89 11.1 102490 63
2001-11-05 07:43:28 51°13.689 2°55.905 4.9 108 11.1 102490 62
2001-11-05 07:43:33 51°13.689 2°55.905 2.8 101 11.1 102490 62
2001-11-05 07:43:38 51°13.689 2°55.905 2.2 96 11.1 102490 62
2001-11-05 07:43:43 51°13.689 2°55.905 2.9 85 11.1 102490 62
2001-11-05 07:43:48 51°13.689 2°55.905 2.3 84 11.1 102490 62
2001-11-05 07:43:53 51°13.689 2°55.905 2.9 98 11.1 102490 62
2001-11-05 07:43:58 51°13.689 2°55.905 3.2 95 11.1 102490 62
2001-11-05 07:44:03 51°13.689 2°55.905 2.6 93 11.1 102490 62
2001-11-05 07:44:08 51°13.689 2°55.905 3.1 101 11.1 102490 62
2001-11-05 07:44:13 51°13.689 2°55.905 3.9 85 11.1 102490 62
2001-11-05 07:44:18 51°13.689 2°55.905 3.9 101 11.1 102490 62
2001-11-05 07:44:22 51°13.689 2°55.905 3.1 88 11.1 102490 62
2001-11-05 07:44:28 51°13.689 2°55.905 5 108 11.1 102490 62
2001-11-05 07:44:33 51°13.689 2°55.905 3.4 89 11.1 102490 62
2001-11-05 07:44:38 51°13.689 2°55.905 3.3 90 11.1 102500 61
2001-11-05 07:44:43 51°13.689 2°55.905 3.4 93 11.1 102500 61
2001-11-05 07:44:48 51°13.689 2°55.905 3.5 93 11.1 102490 61
2001-11-05 07:44:53 51°13.689 2°55.905 2.2 95 11.1 102490 61
2001-11-05 07:44:58 51°13.689 2°55.905 3 75 11.1 102490 61
2001-11-05 07:45:03 51°13.689 2°55.905 2.7 84 11.1 102490 61
2001-11-05 07:45:08 51°13.689 2°55.905 2.7 74 11.1 102490 61
2001-11-05 07:45:13 51°13.689 2°55.905 2 89 11.1 102490 61
2001-11-05 07:45:18 51°13.689 2°55.905 2.3 98 11.1 102490 61
2001-11-05 07:45:23 51°13.689 2°55.905 2.2 103 11.1 102490 61
2001-11-05 07:45:28 51°13.689 2°55.905 2.4 104 11.1 102490 61
2001-11-05 07:45:33 51°13.689 2°55.905 4.2 104 11.1 102490 61
2001-11-05 07:45:38 51°13.689 2°55.905 4 110 11.1 102490 61
2001-11-05 07:45:43 51°13.689 2°55.905 3.3 102 11.1 102490 61
2001-11-05 07:45:48 51°13.689 2°55.905 1.8 101 11.1 102490 62
2001-11-05 07:45:53 51°13.689 2°55.905 1.9 96 11.1 102490 62
2001-11-05 07:45:58 51°13.689 2°55.905 2.3 100 11.1 102490 62
2001-11-05 07:46:03 51°13.689 2°55.905 3.2 78 11.1 102490 62
2001-11-05 07:46:08 51°13.689 2°55.905 2.6 79 11.1 102500 62
2001-11-05 07:46:13 51°13.689 2°55.905 1.9 98 11.1 102500 62
2001-11-05 07:46:18 51°13.689 2°55.905 1.9 93 11.1 102500 62
2001-11-05 07:46:23 51°13.689 2°55.905 2.9 91 11.1 102500 62
2001-11-05 07:46:28 51°13.689 2°55.905 2.5 79 11.1 102500 62
2001-11-05 07:46:33 51°13.689 2°55.905 2.4 94 11.1 102500 62
2001-11-05 07:46:38 51°13.689 2°55.905 3.2 101 11.1 102500 62
2001-11-05 07:46:43 51°13.689 2°55.905 1.7 111 11.1 102500 62
2001-11-05 07:46:48 51°13.689 2°55.905 1.6 104 11.1 102490 61
2001-11-05 07:46:53 51°13.689 2°55.905 3.4 100 11.1 102490 61
2001-11-05 07:46:58 51°13.689 2°55.905 2.8 94 11.1 102500 62
2001-11-05 07:47:03 51°13.689 2°55.905 3.1 101 11.1 102500 62
2001-11-05 07:47:08 51°13.689 2°55.905 3.9 101 11.1 102500 62
2001-11-05 07:47:13 51°13.689 2°55.905 2.3 81 11.1 102500 62
2001-11-05 07:47:18 51°13.689 2°55.905 3.5 91 11.1 102500 62
2001-11-05 07:47:23 51°13.689 2°55.905 2.7 85 11.1 102500 62
2001-11-05 07:47:28 51°13.689 2°55.905 3 87 11.1 102500 61
2001-11-05 07:47:33 51°13.689 2°55.905 1.9 89 11.1 102500 61
2001-11-05 07:47:38 51°13.689 2°55.905 2 85 11.1 102500 62
2001-11-05 07:47:43 51°13.689 2°55.905 2.3 99 11.1 102500 62
2001-11-05 07:47:48 51°13.689 2°55.905 1.9 99 11.1 102500 61
2001-11-05 07:47:53 51°13.689 2°55.905 2.7 89 11.1 102500 61
2001-11-05 07:47:58 51°13.689 2°55.905 3.6 101 11.1 102500 61
2001-11-05 07:48:03 51°13.689 2°55.905 3 97 11.1 102500 61
2001-11-05 07:48:08 51°13.689 2°55.905 2.1 87 11.1 102500 61
2001-11-05 07:48:13 51°13.689 2°55.905 1.7 91 11.1 102500 61
2001-11-05 07:48:18 51°13.689 2°55.905 2.3 90 11.1 102500 61
2001-11-05 07:48:23 51°13.689 2°55.905 2.8 100 11.1 102500 61
2001-11-05 07:48:28 51°13.689 2°55.905 2.6 93 11.1 102500 61
2001-11-05 07:48:33 51°13.689 2°55.905 2.2 84 11.1 102500 61
2001-11-05 07:48:38 51°13.689 2°55.905 2.1 94 11.1 102500 61
2001-11-05 07:48:43 51°13.689 2°55.905 1.3 91 11.1 102500 61
2001-11-05 07:48:48 51°13.689 2°55.906 1.4 81 11.1 102500 61
2001-11-05 07:48:53 51°13.689 2°55.906 1.6 98 11.1 102500 61
2001-11-05 07:48:58 51°13.689 2°55.905 1.6 99 11.1 102500 61
2001-11-05 07:49:03 51°13.689 2°55.905 2.1 91 11.1 102500 61
2001-11-05 07:49:08 51°13.689 2°55.905 2.1 100 11.1 102500 61
2001-11-05 07:49:13 51°13.689 2°55.905 1.5 100 11.1 102500 61
2001-11-05 07:49:18 51°13.689 2°55.905 2.3 92 11.1 102500 61
2001-11-05 07:49:23 51°13.689 2°55.905 1.8 79 11.1 102500 61
2001-11-05 07:49:28 51°13.689 2°55.905 1.7 86 11.1 102500 61
2001-11-05 07:49:33 51°13.689 2°55.905 4.1 104 11.1 102500 61
2001-11-05 07:49:38 51°13.689 2°55.905 2.5 69 11.1 102500 61
2001-11-05 07:49:43 51°13.689 2°55.905 2.4 86 11.1 102500 61
2001-11-05 07:49:48 51°13.689 2°55.905 2.6 75 11.1 102500 61
2001-11-05 07:49:53 51°13.689 2°55.905 2.8 100 11.1 102500 61
2001-11-05 07:49:58 51°13.689 2°55.905 2.5 91 11.1 102500 61
2001-11-05 07:50:03 51°13.689 2°55.905 2 92 11.1 102500 61
2001-11-05 07:50:08 51°13.689 2°55.905 1.5 86 11.1 102500 61
2001-11-05 07:50:13 51°13.689 2°55.905 1.3 92 11.1 102500 61
2001-11-05 07:50:18 51°13.689 2°55.905 1.3 89 11.1 102500 61
2001-11-05 07:50:22 51°13.689 2°55.905 2.2 107 11.1 102500 61
2001-11-05 07:50:28 51°13.689 2°55.905 2 93 11.1 102500 61
2001-11-05 07:50:33 51°13.689 2°55.905 1.8 101 11.1 102500 61
2001-11-05 07:50:38 51°13.689 2°55.905 1.9 117 11.1 102500 61
2001-11-05 07:50:43 51°13.689 2°55.905 1.9 94 11.1 102500 61
2001-11-05 07:50:48 51°13.689 2°55.905 3.1 97 11.1 102500 61
2001-11-05 07:50:53 51°13.689 2°55.905 3.6 103 11.1 102500 61
2001-11-05 07:50:58 51°13.689 2°55.905 2.1 95 11.1 102500 62
2001-11-05 07:51:02 51°13.689 2°55.905 3.1 99 11.1 102500 62
2001-11-05 07:51:08 51°13.689 2°55.905 2.2 95 11.1 102500 62
2001-11-05 07:51:13 51°13.689 2°55.905 1.9 102 11.1 102500 62
2001-11-05 07:51:18 51°13.689 2°55.905 3.4 102 11.1 102500 61
2001-11-05 07:51:23 51°13.689 2°55.905 3.1 90 11.1 102500 61
2001-11-05 07:51:28 51°13.689 2°55.905 3.3 83 11.1 102510 61
2001-11-05 07:51:33 51°13.689 2°55.905 2.6 97 11.1 102510 61
2001-11-05 07:51:38 51°13.689 2°55.905 3.2 101 11.1 102500 61
2001-11-05 07:51:43 51°13.689 2°55.905 2.7 86 11.1 102500 61
2001-11-05 07:51:48 51°13.689 2°55.905 2.7 84 11.1 102500 61
2001-11-05 07:51:53 51°13.689 2°55.905 2.7 93 11.1 102500 61
2001-11-05 07:51:58 51°13.689 2°55.905 3.5 90 11.1 102500 61
2001-11-05 07:52:02 51°13.689 2°55.905 2.9 88 11.1 102500 61
2001-11-05 07:52:08 51°13.689 2°55.905 2.7 99 11.1 102500 61
2001-11-05 07:52:13 51°13.689 2°55.905 1.9 103 11.1 102500 61
2001-11-05 07:52:18 51°13.689 2°55.905 2 110 11.1 102500 61
2001-11-05 07:52:23 51°13.689 2°55.905 1.8 88 11.1 102500 61
2001-11-05 07:52:28 51°13.689 2°55.905 2.6 96 11.1 102510 61
2001-11-05 07:52:33 51°13.689 2°55.905 2.9 79 11.1 102510 61
2001-11-05 07:52:38 51°13.689 2°55.905 2.9 92 11.1 102500 61
2001-11-05 07:52:43 51°13.689 2°55.905 2.7 93 11.1 102500 61
2001-11-05 07:52:48 51°13.689 2°55.905 3 97 11.1 102500 60
2001-11-05 07:52:53 51°13.689 2°55.905 2.8 84 11.1 102500 60
2001-11-05 07:52:58 51°13.689 2°55.905 3.6 81 11.1 102510 60
2001-11-05 07:53:03 51°13.689 2°55.905 2.4 97 11.1 102510 60
2001-11-05 07:53:08 51°13.689 2°55.905 2.2 99 11.1 102500 60
2001-11-05 07:53:13 51°13.689 2°55.905 2.5 84 11.1 102500 60
2001-11-05 07:53:18 51°13.689 2°55.905 3.3 96 11.1 102500 60
2001-11-05 07:53:23 51°13.689 2°55.905 2.1 97 11.1 102500 60
2001-11-05 07:53:28 51°13.689 2°55.905 2.7 112 11.1 102500 60
2001-11-05 07:53:33 51°13.689 2°55.905 2.6 91 11.1 102500 60
2001-11-05 07:53:38 51°13.689 2°55.905 2.8 92 11.1 102500 60
2001-11-05 07:53:43 51°13.689 2°55.905 3.5 91 11.1 102500 60
2001-11-05 07:53:48 51°13.689 2°55.905 2.8 92 11.1 102510 60
2001-11-05 07:53:53 51°13.689 2°55.905 3.4 94 11.1 102510 60
2001-11-05 07:53:58 51°13.689 2°55.905 2.7 84 11.1 102500 60
2001-11-05 07:54:03 51°13.689 2°55.905 2.1 89 11.1 102500 60
2001-11-05 07:54:08 51°13.689 2°55.906 2.2 90 11.1 102500 60
2001-11-05 07:54:13 51°13.688 2°55.906 2.1 95 11.1 102500 60
2001-11-05 07:54:18 51°13.688 2°55.906 3 104 11.1 102500 59
2001-11-05 07:54:23 51°13.688 2°55.906 2.7 89 11.1 102500 59
2001-11-05 07:54:28 51°13.688 2°55.906 2.3 100 11.1 102510 59
2001-11-05 07:54:33 51°13.688 2°55.906 2.3 100 11.1 102510 59
2001-11-05 07:54:38 51°13.688 2°55.906 1.8 100 11.1 102510 59
2001-11-05 07:54:44 51°13.688 2°55.906 2.3 91 11.1 102510 59
2001-11-05 07:54:48 51°13.688 2°55.906 2.4 84 11.1 102500 60
2001-11-05 07:54:53 51°13.688 2°55.906 2.2 82 11.1 102500 60
2001-11-05 07:54:58 51°13.688 2°55.906 1.9 96 11.1 102510 60
2001-11-05 07:55:02 51°13.689 2°55.906 2.6 92 11.1 102510 60
2001-11-05 07:55:08 51°13.689 2°55.906 2.8 91 11.1 102500 60
2001-11-05 07:55:13 51°13.689 2°55.906 2.4 91 11.1 102500 60
2001-11-05 07:55:18 51°13.689 2°55.906 2.5 97 11.1 102500 60
2001-11-05 07:55:23 51°13.689 2°55.906 2.8 83 11.1 102500 60
2001-11-05 07:55:28 51°13.688 2°55.906 2.4 76 11.1 102510 60
2001-11-05 07:55:33 51°13.688 2°55.906 3.7 102 11.1 102510 60
2001-11-05 07:55:38 51°13.688 2°55.906 4.1 108 11.1 102500 60
2001-11-05 07:55:44 51°13.688 2°55.906 2.8 101 11.1 102500 60
2001-11-05 07:55:48 51°13.688 2°55.906 3.5 105 11.1 102510 60
2001-11-05 07:55:53 51°13.688 2°55.906 3.2 85 11.1 102510 60
2001-11-05 07:55:58 51°13.688 2°55.906 3.2 93 11.1 102500 59
2001-11-05 07:56:03 51°13.688 2°55.906 2.9 104 11.1 102500 59
2001-11-05 07:56:08 51°13.688 2°55.906 3.2 93 11.1 102510 60
2001-11-05 07:56:13 51°13.688 2°55.906 2.7 87 11.1 102510 60
2001-11-05 07:56:18 51°13.688 2°55.906 2.8 108 11.1 102500 60
2001-11-05 07:56:22 51°13.688 2°55.906 2.5 88 11.1 102500 60
2001-11-05 07:56:28 51°13.688 2°55.906 1.9 84 11.1 102510 60
2001-11-05 07:56:33 51°13.688 2°55.906 2.1 95 11.1 102510 60
2001-11-05 07:56:38 51°13.688 2°55.906 2 94 11.1 102510 60
2001-11-05 07:56:43 51°13.688 2°55.906 1.4 92 11.1 102510 60
2001-11-05 07:56:48 51°13.688 2°55.906 1.2 94 11.1 102500 60
2001-11-05 07:56:53 51°13.688 2°55.906 2.1 96 11.1 102500 60
2001-11-05 07:56:58 51°13.688 2°55.907 2 99 11.1 102500 60
2001-11-05 07:57:03 51°13.688 2°55.907 2 106 11.1 102500 60
2001-11-05 07:57:08 51°13.688 2°55.907 2.6 82 11.1 102510 60
2001-11-05 07:57:13 51°13.688 2°55.907 2 100 11.1 102510 60
2001-11-05 07:57:18 51°13.688 2°55.907 2.5 86 11.1 102510 60
2001-11-05 07:57:22 51°13.688 2°55.907 2 89 11.1 102510 60
2001-11-05 07:57:28 51°13.688 2°55.907 1.9 99 11.1 102510 60
2001-11-05 07:57:33 51°13.688 2°55.907 2.8 101 11.1 102510 60
2001-11-05 07:57:38 51°13.688 2°55.907 2.2 113 11.1 102500 60
2001-11-05 07:57:43 51°13.688 2°55.907 3.1 94 11.1 102500 60
2001-11-05 07:57:48 51°13.688 2°55.907 2.5 95 11.1 102500 60
2001-11-05 07:57:53 51°13.688 2°55.907 1.8 97 11.1 102500 60
2001-11-05 07:57:58 51°13.688 2°55.907 2.1 93 11.1 102510 60
2001-11-05 07:58:03 51°13.688 2°55.907 2.6 99 11.1 102510 60
2001-11-05 07:58:08 51°13.688 2°55.907 2 97 11.1 102500 60
2001-11-05 07:58:13 51°13.688 2°55.907 1.9 101 11.1 102500 60
2001-11-05 07:58:18 51°13.688 2°55.907 2.8 90 11.1 102500 60
2001-11-05 07:58:22 51°13.688 2°55.907 2 95 11.1 102500 60
2001-11-05 07:58:28 51°13.688 2°55.907 1.5 92 11.1 102500 60
2001-11-05 07:58:33 51°13.688 2°55.907 1.6 99 11.1 102500 60
2001-11-05 07:58:38 51°13.688 2°55.907 2.6 107 11.1 102510 60
2001-11-05 07:58:43 51°13.688 2°55.907 2 78 11.1 102510 60
2001-11-05 07:58:48 51°13.688 2°55.907 2.4 104 11.1 102500 60
2001-11-05 07:58:53 51°13.688 2°55.907 3 104 11.1 102500 60
2001-11-05 07:58:58 51°13.688 2°55.906 2.4 104 11.1 102510 60
2001-11-05 07:59:03 51°13.688 2°55.906 2.7 89 11.1 102510 60
2001-11-05 07:59:08 51°13.688 2°55.906 2.5 82 11.1 102510 60
2001-11-05 07:59:13 51°13.688 2°55.906 1.8 94 11.1 102510 60
2001-11-05 07:59:18 51°13.688 2°55.906 2.5 82 11.1 102510 60
2001-11-05 07:59:24 51°13.688 2°55.906 1.6 99 11.1 102510 60
2001-11-05 07:59:28 51°13.688 2°55.906 1.6 83 11.1 102510 60
2001-11-05 07:59:33 51°13.688 2°55.906 1.7 105 11.1 102510 60
2001-11-05 07:59:38 51°13.688 2°55.906 1.2 103 11.1 102510 60
2001-11-05 07:59:43 51°13.688 2°55.906 2 111 11.1 102510 60
2001-11-05 07:59:48 51°13.688 2°55.906 1.4 99 11.1 102510 60
2001-11-05 07:59:53 51°13.688 2°55.906 1.6 98 11.1 102510 60
2001-11-05 07:59:58 51°13.688 2°55.906 1.4 83 11.1 102500 60
2001-11-05 08:00:04 51°13.688 2°55.906 2.3 83 11.1 102500 60
2001-11-05 08:00:08 51°13.688 2°55.906 2 88 11.1 102510 60
2001-11-05 08:00:13 51°13.688 2°55.906 0.9 84 11.1 102510 60
2001-11-05 08:00:18 51°13.688 2°55.906 1.4 78 11.1 102510 60
2001-11-05 08:00:23 51°13.688 2°55.906 1.6 102 11.1 102510 60
2001-11-05 08:00:28 51°13.688 2°55.906 1.3 105 11.1 102510 60
2001-11-05 08:00:33 51°13.688 2°55.906 1.8 90 11.1 102510 60
2001-11-05 08:00:38 51°13.688 2°55.906 1.7 84 11.1 102500 60
2001-11-05 08:00:43 51°13.688 2°55.907 1.5 102 11.1 102500 60
2001-11-05 08:00:48 51°13.688 2°55.906 2.5 111 11.1 102510 60
2001-11-05 08:00:53 51°13.688 2°55.906 1.5 97 11.1 102510 60
2001-11-05 08:00:58 51°13.688 2°55.906 1.3 97 11.1 102510 60
2001-11-05 08:01:03 51°13.688 2°55.906 2.8 100 11.1 102510 60
2001-11-05 08:01:08 51°13.688 2°55.906 2.5 83 11.1 102510 60
2001-11-05 08:01:13 51°13.688 2°55.906 1.8 77 11.1 102510 60
2001-11-05 08:01:18 51°13.688 2°55.906 1.2 88 11.1 102500 60
2001-11-05 08:01:23 51°13.688 2°55.906 1.4 93 11.1 102500 60
2001-11-05 08:01:28 51°13.688 2°55.906 1 99 11.1 102510 60
2001-11-05 08:01:33 51°13.688 2°55.906 1.9 103 11.1 102510 60
2001-11-05 08:01:38 51°13.688 2°55.906 1.1 130 11.1 102510 60
2001-11-05 08:01:43 51°13.688 2°55.906 0.8 108 11.1 102510 60
2001-11-05 08:01:48 51°13.688 2°55.906 1 91 11.1 102510 60
2001-11-05 08:01:53 51°13.688 2°55.906 1.4 110 11.1 102510 60
2001-11-05 08:01:58 51°13.688 2°55.906 1.5 134 11.1 102510 60
2001-11-05 08:02:03 51°13.688 2°55.907 2.4 101 11.1 102510 61
2001-11-05 08:02:08 51°13.688 2°55.907 2.4 94 11.1 102510 61
2001-11-05 08:02:13 51°13.688 2°55.906 2.4 91 11.1 102510 61
2001-11-05 08:02:18 51°13.688 2°55.907 2.4 80 11.1 102510 61
2001-11-05 08:02:23 51°13.688 2°55.907 1.7 101 11.1 102510 61
2001-11-05 08:02:28 51°13.688 2°55.906 1.4 98 11.1 102510 61
2001-11-05 08:02:33 51°13.689 2°55.906 1.8 104 11.1 102510 60
2001-11-05 08:02:38 51°13.689 2°55.906 1.3 87 11.1 102510 60
2001-11-05 08:02:43 51°13.689 2°55.906 1.8 105 11.1 102510 60
2001-11-05 08:02:48 51°13.689 2°55.906 2.6 106 11.1 102510 60
2001-11-05 08:02:53 51°13.689 2°55.906 2.2 101 11.1 102510 60
2001-11-05 08:02:58 51°13.689 2°55.906 2.2 88 11.1 102510 60
2001-11-05 08:03:03 51°13.689 2°55.906 2.3 104 11.1 102510 60
2001-11-05 08:03:08 51°13.689 2°55.906 1.6 83 11.1 102510 60
2001-11-05 08:03:13 51°13.689 2°55.906 1.4 96 11.1 102510 60
2001-11-05 08:03:18 51°13.689 2°55.906 1.2 114 11.1 102510 60
2001-11-05 08:03:23 51°13.689 2°55.906 1.7 89 11.1 102510 60
2001-11-05 08:03:28 51°13.689 2°55.906 1.5 107 11.1 102510 60
2001-11-05 08:03:33 51°13.689 2°55.906 1.6 89 11.1 102510 60
2001-11-05 08:03:38 51°13.689 2°55.906 2.1 82 11.1 102510 60
2001-11-05 08:03:43 51°13.689 2°55.906 1.8 107 11.1 102510 60
2001-11-05 08:03:48 51°13.689 2°55.906 1.8 97 11.1 102510 60
2001-11-05 08:03:53 51°13.689 2°55.906 1.7 88 11.1 102510 60
2001-11-05 08:03:58 51°13.689 2°55.906 1.9 90 11.1 102510 60
2001-11-05 08:04:04 51°13.689 2°55.906 2.8 99 11.1 102510 60
2001-11-05 08:04:08 51°13.689 2°55.905 2.1 94 11.1 102510 60
2001-11-05 08:04:13 51°13.689 2°55.905 2 83 11.1 102510 60
2001-11-05 08:04:18 51°13.689 2°55.905 1.7 92 11.1 102510 60
2001-11-05 08:04:22 51°13.689 2°55.905 2 87 11.1 102510 60
2001-11-05 08:04:28 51°13.689 2°55.905 1.8 106 11.1 102510 60
2001-11-05 08:04:33 51°13.689 2°55.905 1.5 103 11.1 102510 60
2001-11-05 08:04:38 51°13.689 2°55.905 1.3 108 11.1 102510 60
2001-11-05 08:04:43 51°13.689 2°55.905 1.5 102 11.1 102510 60
2001-11-05 08:04:48 51°13.689 2°55.906 0.9 93 11.1 102510 60
2001-11-05 08:04:53 51°13.689 2°55.905 1.1 102 11.1 102510 60
2001-11-05 08:04:58 51°13.689 2°55.905 2.1 101 11.1 102510 60
2001-11-05 08:05:03 51°13.689 2°55.905 1.2 84 11.1 102510 60
2001-11-05 08:05:08 51°13.689 2°55.906 1.1 94 11.1 102510 60
2001-11-05 08:05:13 51°13.689 2°55.905 1.2 92 11.1 102510 60
2001-11-05 08:05:18 51°13.689 2°55.906 1 101 11.1 102510 60
2001-11-05 08:05:23 51°13.689 2°55.905 1.4 87 11.1 102510 60
2001-11-05 08:05:28 51°13.689 2°55.905 1.5 100 11.1 102510 60
2001-11-05 08:05:33 51°13.689 2°55.905 1.5 102 11.1 102510 60
2001-11-05 08:05:38 51°13.689 2°55.906 1.6 106 11.1 102510 60
2001-11-05 08:05:43 51°13.689 2°55.905 1.5 95 11.1 102510 60
2001-11-05 08:05:49 51°13.689 2°55.906 1.3 113 11.1 102510 60
2001-11-05 08:05:53 51°13.689 2°55.906 1.9 120 11.1 102510 60
2001-11-05 08:05:58 51°13.689 2°55.906 1.7 104 11.1 102510 60
2001-11-05 08:06:03 51°13.689 2°55.905 0.8 104 11.1 102510 60
2001-11-05 08:06:08 51°13.689 2°55.905 1.6 100 11.1 102510 60
2001-11-05 08:06:13 51°13.689 2°55.905 1.7 104 11.1 102510 60
2001-11-05 08:06:18 51°13.689 2°55.905 1.5 102 11.1 102510 60
2001-11-05 08:06:23 51°13.689 2°55.905 1.3 95 11.1 102510 60
2001-11-05 08:06:28 51°13.689 2°55.905 1.2 91 11.1 102510 60
2001-11-05 08:06:33 51°13.689 2°55.905 1.1 92 11.1 102510 60
2001-11-05 08:06:38 51°13.689 2°55.905 1.2 96 11.1 102510 60
2001-11-05 08:06:43 51°13.689 2°55.905 1.3 127 11.1 102510 60
2001-11-05 08:06:48 51°13.689 2°55.905 1.2 115 11.1 102510 60
2001-11-05 08:06:53 51°13.689 2°55.905 1.5 122 11.1 102510 60
2001-11-05 08:06:58 51°13.689 2°55.905 1.6 116 11.1 102510 60
2001-11-05 08:07:03 51°13.689 2°55.905 1.6 97 11.1 102510 60
2001-11-05 08:07:08 51°13.689 2°55.905 1.3 93 11.1 102510 60
2001-11-05 08:07:13 51°13.689 2°55.905 1.5 122 11.1 102510 60
2001-11-05 08:07:18 51°13.689 2°55.905 1.1 113 11.1 102510 60
2001-11-05 08:07:22 51°13.688 2°55.905 1.5 114 11.1 102510 60
2001-11-05 08:07:28 51°13.689 2°55.905 1.5 102 11.1 102510 60
2001-11-05 08:07:33 51°13.689 2°55.905 1.4 90 11.1 102510 60
2001-11-05 08:07:38 51°13.689 2°55.905 1.1 99 11.1 102510 60
2001-11-05 08:07:43 51°13.689 2°55.905 1.1 125 11.1 102510 61
2001-11-05 08:07:48 51°13.689 2°55.905 1 110 11.1 102510 61
2001-11-05 08:07:53 51°13.689 2°55.905 1.2 93 11.1 102510 61
2001-11-05 08:07:58 51°13.689 2°55.905 1 85 11.1 102510 61
2001-11-05 08:08:03 51°13.689 2°55.905 1.6 105 11.1 102510 61
2001-11-05 08:08:08 51°13.689 2°55.905 1.4 103 11.1 102510 61
2001-11-05 08:08:13 51°13.688 2°55.905 2.1 105 11.1 102510 61
2001-11-05 08:08:18 51°13.688 2°55.905 1.6 104 11.1 102510 61
2001-11-05 08:08:23 51°13.688 2°55.905 1.2 101 11.1 102510 61
2001-11-05 08:08:28 51°13.688 2°55.905 1.1 99 11.1 102510 61
2001-11-05 08:08:33 51°13.688 2°55.905 1.4 112 11.1 102510 62
2001-11-05 08:08:38 51°13.688 2°55.905 1.5 84 11.1 102510 62
2001-11-05 08:08:43 51°13.688 2°55.905 2.1 111 11.1 102510 62
2001-11-05 08:08:48 51°13.688 2°55.905 1.7 115 11.1 102510 62
2001-11-05 08:08:53 51°13.687 2°55.905 1.5 81 11.1 102510 61
2001-11-05 08:08:58 51°13.687 2°55.905 1.5 105 11.1 102510 61
2001-11-05 08:09:02 51°13.687 2°55.905 1.2 105 11.1 102510 61
2001-11-05 08:09:08 51°13.687 2°55.905 1.7 96 11.1 102510 61
2001-11-05 08:09:13 51°13.687 2°55.906 1.3 90 11.1 102510 61
2001-11-05 08:09:18 51°13.687 2°55.905 1.9 97 11.1 102510 61
2001-11-05 08:09:23 51°13.687 2°55.905 1.8 96 11.1 102510 61
2001-11-05 08:09:28 51°13.687 2°55.905 1.4 97 11.1 102510 61
2001-11-05 08:09:33 51°13.687 2°55.905 1.6 98 11.1 102510 61
2001-11-05 08:09:38 51°13.687 2°55.905 2.1 100 11.1 102510 61
2001-11-05 08:09:42 51°13.687 2°55.905 1.3 91 11.1 102510 61
2001-11-05 08:09:48 51°13.687 2°55.905 1.7 86 11.1 102510 61
2001-11-05 08:09:53 51°13.688 2°55.905 1.3 106 11.1 102510 61
2001-11-05 08:09:58 51°13.688 2°55.905 2.1 105 11.1 102510 61
2001-11-05 08:10:03 51°13.688 2°55.905 2 107 11.1 102510 61
2001-11-05 08:10:08 51°13.688 2°55.905 3 101 11.1 102510 61
2001-11-05 08:10:13 51°13.688 2°55.905 1.6 93 11.1 102520 61
2001-11-05 08:10:18 51°13.688 2°55.905 1.3 109 11.1 102520 61
2001-11-05 08:10:22 51°13.688 2°55.905 1.9 81 11.1 102510 60
2001-11-05 08:10:28 51°13.688 2°55.905 2.3 111 11.1 102510 60
2001-11-05 08:10:33 51°13.688 2°55.905 2 96 11.1 102510 60
2001-11-05 08:10:38 51°13.688 2°55.905 2.1 82 11.1 102510 60
2001-11-05 08:10:43 51°13.688 2°55.905 2.3 86 11.1 102510 60
2001-11-05 08:10:48 51°13.688 2°55.905 1.5 92 11.1 102510 60
2001-11-05 08:10:53 51°13.688 2°55.905 1.9 92 11.1 102520 59
2001-11-05 08:10:58 51°13.688 2°55.905 2.2 86 11.1 102520 59
2001-11-05 08:11:03 51°13.688 2°55.905 2.2 86 11.1 102510 58
2001-11-05 08:11:08 51°13.688 2°55.905 2.1 93 11.1 102510 58
2001-11-05 08:11:13 51°13.688 2°55.905 2.6 94 11.1 102510 58
2001-11-05 08:11:18 51°13.688 2°55.905 3 93 11.1 102510 58
2001-11-05 08:11:23 51°13.688 2°55.905 2.2 89 11.1 102520 58
2001-11-05 08:11:28 51°13.688 2°55.905 2.1 93 11.1 102520 58
2001-11-05 08:11:33 51°13.688 2°55.905 2.5 97 11.1 102510 58
2001-11-05 08:11:38 51°13.688 2°55.905 1.8 94 11.1 102510 58
2001-11-05 08:11:43 51°13.688 2°55.905 2.5 97 11.1 102510 58
2001-11-05 08:11:48 51°13.688 2°55.905 1.5 87 11.1 102510 58
2001-11-05 08:11:53 51°13.688 2°55.905 1.5 97 11.1 102510 58
2001-11-05 08:11:58 51°13.688 2°55.905 1.7 95 11.1 102510 58
2001-11-05 08:12:03 51°13.688 2°55.905 2.7 121 11.1 102520 58
2001-11-05 08:12:08 51°13.688 2°55.905 2.1 93 11.1 102520 58
2001-11-05 08:12:13 51°13.688 2°55.905 2.1 93 11.1 102520 58
2001-11-05 08:12:18 51°13.688 2°55.905 3 99 11.1 102520 58
2001-11-05 08:12:22 51°13.688 2°55.905 2.3 88 11.1 102510 58
2001-11-05 08:12:29 51°13.688 2°55.905 1.8 102 11.1 102510 58
2001-11-05 08:12:33 51°13.688 2°55.905 2 92 11.1 102520 58
2001-11-05 08:12:38 51°13.688 2°55.905 2 93 11.1 102520 58
2001-11-05 08:12:43 51°13.688 2°55.905 2.1 87 11.1 102520 58
2001-11-05 08:12:48 51°13.688 2°55.905 2.1 96 11.1 102520 58
2001-11-05 08:12:53 51°13.688 2°55.905 2 91 11.1 102520 58
2001-11-05 08:12:58 51°13.688 2°55.905 2.3 77 11.1 102520 58
2001-11-05 08:13:03 51°13.688 2°55.905 2.6 84 11.1 102520 58
2001-11-05 08:13:08 51°13.688 2°55.905 2.2 90 11.1 102520 58
2001-11-05 08:13:13 51°13.688 2°55.905 1.7 87 11.1 102520 58
2001-11-05 08:13:18 51°13.688 2°55.905 1.7 84 11.1 102520 58
2001-11-05 08:13:23 51°13.688 2°55.905 2.3 111 11.1 102520 58
2001-11-05 08:13:28 51°13.688 2°55.905 1.7 98 11.1 102520 58
2001-11-05 08:13:33 51°13.688 2°55.905 2 101 11.1 102520 58
2001-11-05 08:13:38 51°13.688 2°55.905 2.8 106 11.1 102520 58
2001-11-05 08:13:42 51°13.688 2°55.905 1.7 136 11.2 102520 58
2001-11-05 08:13:48 51°13.688 2°55.905 1.5 97 11.2 102520 58
2001-11-05 08:14:40 51°13.688 2°55.905 2.1 75 -999 -999 -999
2001-11-05 08:14:45 51°13.688 2°55.905 2.1 113 11.2 102520 59
2001-11-05 08:14:50 51°13.688 2°55.905 2.3 90 11.2 102520 59
2001-11-05 08:14:55 51°13.688 2°55.905 2.6 88 11.2 102520 60
2001-11-05 08:15:00 51°13.688 2°55.905 2.7 79 11.2 102520 60
2001-11-05 08:15:05 51°13.688 2°55.905 2.2 91 11.2 102520 60
2001-11-05 08:15:10 51°13.688 2°55.905 2.5 91 11.2 102520 60
2001-11-05 08:15:15 51°13.688 2°55.905 3.6 96 11.2 102520 60
2001-11-05 08:15:20 51°13.688 2°55.905 2.8 102 11.2 102520 60
2001-11-05 08:15:25 51°13.688 2°55.905 2.7 106 11.2 102520 60
2001-11-05 08:15:30 51°13.688 2°55.905 1.6 92 11.2 102520 60
2001-11-05 08:15:35 51°13.688 2°55.905 2 105 11.2 102520 60
2001-11-05 08:15:40 51°13.688 2°55.905 3 100 11.2 102520 60
2001-11-05 08:15:45 51°13.688 2°55.905 2.4 95 11.2 102520 60
2001-11-05 08:15:50 51°13.688 2°55.905 1.8 87 11.2 102520 60
2001-11-05 08:15:55 51°13.688 2°55.905 2.2 100 11.2 102520 61
2001-11-05 08:16:00 51°13.688 2°55.905 3 104 11.2 102520 61
2001-11-05 08:16:05 51°13.688 2°55.905 3.2 121 11.2 102520 61
2001-11-05 08:16:10 51°13.688 2°55.905 1.3 108 11.2 102520 61
2001-11-05 08:16:15 51°13.688 2°55.905 1.3 105 11.2 102520 61
2001-11-05 08:16:20 51°13.688 2°55.905 2.6 95 11.2 102520 61
2001-11-05 08:16:25 51°13.688 2°55.905 2.4 97 11.2 102520 61
2001-11-05 08:16:30 51°13.688 2°55.905 1.9 105 11.2 102520 61
2001-11-05 08:16:35 51°13.688 2°55.905 2.4 134 11.2 102520 61
2001-11-05 08:16:40 51°13.688 2°55.905 1.8 94 11.2 102520 61
2001-11-05 08:16:45 51°13.688 2°55.905 1.9 106 11.2 102520 61
2001-11-05 08:16:50 51°13.688 2°55.905 2 90 11.2 102520 61
2001-11-05 08:16:55 51°13.688 2°55.905 2.5 116 11.2 102520 61
2001-11-05 08:17:00 51°13.688 2°55.905 2.1 90 11.2 102520 61
2001-11-05 08:17:05 51°13.688 2°55.905 2.3 118 11.2 102520 61
2001-11-05 08:17:10 51°13.688 2°55.905 2.4 75 11.2 102520 61
2001-11-05 08:17:15 51°13.688 2°55.905 3.4 112 11.2 102520 62
2001-11-05 08:17:20 51°13.688 2°55.905 1.9 91 11.2 102520 62
2001-11-05 08:17:25 51°13.688 2°55.905 2.7 103 11.2 102530 62
2001-11-05 08:17:30 51°13.688 2°55.905 2.1 95 11.2 102530 62
2001-11-05 08:17:36 51°13.688 2°55.905 2.3 103 11.2 102530 62
2001-11-05 08:17:40 51°13.688 2°55.905 1.2 132 11.2 102530 62
2001-11-05 08:17:45 51°13.688 2°55.905 1.1 118 11.2 102530 62
2001-11-05 08:17:50 51°13.688 2°55.905 3.6 122 11.2 102530 62
2001-11-05 08:17:55 51°13.688 2°55.905 2.5 103 11.2 102530 62
2001-11-05 08:18:00 51°13.688 2°55.905 3.2 122 11.2 102530 62
2001-11-05 08:18:05 51°13.688 2°55.905 2.3 102 11.2 102520 62
2001-11-05 08:18:10 51°13.688 2°55.905 2 107 11.2 102520 62
2001-11-05 08:18:15 51°13.688 2°55.905 1.5 109 11.2 102520 62
2001-11-05 08:18:20 51°13.688 2°55.905 3.2 115 11.2 102520 62
2001-11-05 08:18:25 51°13.688 2°55.905 3.5 103 11.2 102530 62
2001-11-05 08:18:30 51°13.687 2°55.905 2.1 134 11.2 102530 62
2001-11-05 08:18:35 51°13.687 2°55.905 3.1 116 11.2 102520 63
2001-11-05 08:18:40 51°13.687 2°55.905 2.1 105 11.2 102520 63
2001-11-05 08:18:45 51°13.687 2°55.905 3.9 103 11.2 102530 62
2001-11-05 08:18:50 51°13.687 2°55.905 4 107 11.2 102530 62
2001-11-05 08:18:55 51°13.687 2°55.906 3.5 98 11.1 102530 62
2001-11-05 08:19:00 51°13.687 2°55.905 2.6 116 11.1 102530 62
2001-11-05 08:19:05 51°13.687 2°55.906 1.7 117 11.2 102530 62
2001-11-05 08:19:10 51°13.687 2°55.906 3.1 116 11.2 102530 62
2001-11-05 08:19:15 51°13.687 2°55.906 3.2 110 11.2 102530 61
2001-11-05 08:19:20 51°13.687 2°55.906 2.7 127 11.2 102530 61
2001-11-05 08:19:25 51°13.687 2°55.906 3 103 11.2 102520 62
2001-11-05 08:19:30 51°13.687 2°55.906 2.3 117 11.2 102520 62
2001-11-05 08:19:35 51°13.687 2°55.906 2.4 117 11.2 102530 62
2001-11-05 08:19:40 51°13.687 2°55.905 3.5 128 11.2 102530 62
2001-11-05 08:19:45 51°13.687 2°55.905 2.8 135 11.2 102530 62
2001-11-05 08:19:50 51°13.687 2°55.905 1.5 106 11.2 102530 62
2001-11-05 08:19:55 51°13.687 2°55.905 2.8 104 11.2 102530 63
2001-11-05 08:20:00 51°13.687 2°55.905 3 114 11.2 102530 63
2001-11-05 08:20:05 51°13.687 2°55.906 2.5 113 11.2 102530 63
2001-11-05 08:20:10 51°13.687 2°55.906 2.9 111 11.2 102530 63
2001-11-05 08:20:15 51°13.687 2°55.906 3.3 136 11.2 102530 63
2001-11-05 08:20:20 51°13.687 2°55.906 3 115 11.2 102530 63
2001-11-05 08:20:25 51°13.688 2°55.906 2.6 102 11.2 102530 63
2001-11-05 08:20:30 51°13.688 2°55.906 1.9 110 11.2 102530 63
2001-11-05 08:20:35 51°13.688 2°55.905 1.6 106 11.2 102530 62
2001-11-05 08:20:40 51°13.688 2°55.905 3.3 114 11.2 102530 62
2001-11-05 08:20:45 51°13.688 2°55.905 1.9 97 11.2 102530 62
2001-11-05 08:20:50 51°13.688 2°55.905 1.8 110 11.2 102530 62
2001-11-05 08:20:55 51°13.688 2°55.905 1.2 113 11.2 102530 62
2001-11-05 08:21:01 51°13.688 2°55.906 2.5 129 11.2 102530 62
2001-11-05 08:21:05 51°13.688 2°55.905 1.5 93 11.2 102530 62
2001-11-05 08:21:10 51°13.688 2°55.905 2 118 11.2 102530 62
2001-11-05 08:21:15 51°13.688 2°55.905 2.8 99 11.2 102530 62
2001-11-05 08:21:20 51°13.688 2°55.905 2.1 94 11.2 102530 62
2001-11-05 08:21:25 51°13.688 2°55.906 2.2 120 11.2 102530 62
2001-11-05 08:21:30 51°13.688 2°55.905 1.5 101 11.2 102530 62
2001-11-05 08:21:35 51°13.688 2°55.905 1.8 108 11.2 102530 62
2001-11-05 08:21:40 51°13.688 2°55.905 1.3 121 11.2 102530 62
2001-11-05 08:21:45 51°13.688 2°55.905 2.1 96 11.2 102530 62
2001-11-05 08:21:50 51°13.689 2°55.905 1.6 79 11.2 102530 62
2001-11-05 08:21:55 51°13.689 2°55.905 1.4 99 11.2 102530 62
2001-11-05 08:22:00 51°13.689 2°55.905 2.1 94 11.2 102530 62
2001-11-05 08:22:05 51°13.689 2°55.905 2.5 98 11.2 102530 62
2001-11-05 08:22:10 51°13.689 2°55.905 2.1 98 11.2 102530 62
2001-11-05 08:22:15 51°13.689 2°55.905 1.7 100 11.2 102530 62
2001-11-05 08:22:20 51°13.688 2°55.905 2.1 108 11.2 102530 62
2001-11-05 08:22:25 51°13.688 2°55.905 2.1 118 11.2 102530 61
2001-11-05 08:22:30 51°13.688 2°55.905 1.6 116 11.2 102530 61
2001-11-05 08:22:35 51°13.688 2°55.905 1.2 114 11.2 102530 61
2001-11-05 08:22:40 51°13.688 2°55.905 1.5 71 11.2 102530 61
2001-11-05 08:22:45 51°13.688 2°55.905 1.9 101 11.2 102530 61
2001-11-05 08:22:50 51°13.688 2°55.905 2.3 96 11.2 102530 61
2001-11-05 08:22:55 51°13.688 2°55.906 2.2 92 11.2 102530 62
2001-11-05 08:23:00 51°13.689 2°55.906 3.4 95 11.2 102530 62
2001-11-05 08:23:05 51°13.689 2°55.906 2.9 113 11.2 102530 62
2001-11-05 08:23:10 51°13.689 2°55.906 2.7 116 11.2 102530 62
2001-11-05 08:23:16 51°13.689 2°55.905 5.1 94 11.1 102530 61
2001-11-05 08:23:20 51°13.689 2°55.905 3 114 11.1 102530 61
2001-11-05 08:23:25 51°13.689 2°55.905 4.3 107 11.1 102530 61
2001-11-05 08:23:30 51°13.689 2°55.905 2.4 110 11.1 102530 61
2001-11-05 08:23:35 51°13.689 2°55.905 2.9 96 11.1 102530 61
2001-11-05 08:23:41 51°13.689 2°55.905 2.2 116 11.1 102530 61
2001-11-05 08:23:45 51°13.689 2°55.905 3.2 92 11.1 102530 61
2001-11-05 08:23:50 51°13.689 2°55.905 3.3 92 11.1 102530 61
2001-11-05 08:23:55 51°13.689 2°55.905 3.5 114 11.1 102530 60
2001-11-05 08:24:01 51°13.689 2°55.905 3.2 101 11.1 102530 60
2001-11-05 08:24:05 51°13.689 2°55.905 2.5 129 11.1 102530 60
2001-11-05 08:24:10 51°13.689 2°55.905 4.2 114 11.1 102530 60
2001-11-05 08:24:15 51°13.689 2°55.905 3.1 90 11.1 102530 60
2001-11-05 08:24:20 51°13.689 2°55.905 3.1 94 11.1 102530 60
2001-11-05 08:24:25 51°13.689 2°55.905 3 87 11.1 102530 61
2001-11-05 08:24:30 51°13.689 2°55.905 3.7 113 11.1 102530 61
2001-11-05 08:24:35 51°13.689 2°55.905 4.3 93 11.1 102530 60
2001-11-05 08:24:40 51°13.689 2°55.905 3.3 95 11.1 102530 60
2001-11-05 08:24:45 51°13.689 2°55.905 4.3 93 11.1 102530 60
2001-11-05 08:24:50 51°13.689 2°55.905 2.7 87 11.1 102530 60
2001-11-05 08:24:55 51°13.689 2°55.905 3 113 11.1 102530 60
2001-11-05 08:25:00 51°13.689 2°55.905 3.1 100 11.1 102530 60
2001-11-05 08:25:05 51°13.689 2°55.905 2.1 126 11.1 102530 60
2001-11-05 08:25:10 51°13.689 2°55.906 3.2 133 11.1 102530 60
2001-11-05 08:25:15 51°13.689 2°55.906 2.3 149 11.1 102530 60
2001-11-05 08:25:20 51°13.689 2°55.906 1.4 109 11.1 102530 60
2001-11-05 08:25:25 51°13.689 2°55.906 1.8 87 11.1 102530 60
2001-11-05 08:25:30 51°13.689 2°55.906 2.6 102 11.1 102530 60
2001-11-05 08:25:35 51°13.689 2°55.906 2.6 82 11.1 102530 61
2001-11-05 08:25:40 51°13.689 2°55.906 2.1 102 11.1 102530 61
2001-11-05 08:25:45 51°13.689 2°55.906 1.3 131 11.1 102530 62
2001-11-05 08:25:50 51°13.689 2°55.906 1 94 11.1 102530 62
2001-11-05 08:25:55 51°13.689 2°55.906 2.1 127 11.1 102530 61
2001-11-05 08:26:00 51°13.689 2°55.906 1.7 118 11.1 102530 61
2001-11-05 08:26:05 51°13.689 2°55.906 4.1 111 11.1 102530 61
2001-11-05 08:26:10 51°13.689 2°55.906 3.4 117 11.1 102530 61
2001-11-05 08:26:15 51°13.689 2°55.906 3.4 106 11.2 102530 61
2001-11-05 08:26:20 51°13.689 2°55.906 2.8 113 11.2 102530 61
2001-11-05 08:26:25 51°13.689 2°55.906 1.3 122 11.1 102530 61
2001-11-05 08:26:30 51°13.689 2°55.906 2.2 102 11.1 102530 61
2001-11-05 08:26:35 51°13.689 2°55.906 2 106 11.2 102530 61
2001-11-05 08:26:40 51°13.689 2°55.905 1.9 137 11.2 102530 61
2001-11-05 08:26:45 51°13.689 2°55.906 1.2 113 11.2 102530 61
2001-11-05 08:26:50 51°13.689 2°55.906 1.7 107 11.2 102530 61
2001-11-05 08:26:55 51°13.689 2°55.906 1.8 108 11.2 102530 61
2001-11-05 08:27:00 51°13.689 2°55.906 2.6 113 11.2 102530 61
2001-11-05 08:27:05 51°13.689 2°55.906 2.8 107 11.2 102530 61